• în România
  • Lista ţărilor
  • Pe 7 zile
  • Temperatura apei
  • Hartă satelitară
  • Meteo pe hartă
  • Widget-uri
  • user-avatar
    Intrare

    Meteo pe oră la Istria

    Astăzi, 26 Februarie, Luni

    Timp Temperatura Precipitaţii Vânt Presiune Umiditate
    00:00 -11°C° 0 mm 14 m/s 751 mmHg 64%
    01:00 -11°C° 0 mm 14 m/s 751 mmHg 64%
    02:00 -11°C° 0 mm 14 m/s 751 mmHg 64%
    03:00 -11°C° 0 mm 14 m/s 751 mmHg 64%
    04:00 -13°C° 0 mm 14 m/s 750 mmHg 64%
    05:00 -13°C° 0 mm 14 m/s 750 mmHg 64%
    06:00 -13°C° 0 mm 14 m/s 750 mmHg 64%
    07:00 -13°C° 0 mm 14 m/s 750 mmHg 63%
    08:00 -13°C° 0 mm 14 m/s 750 mmHg 62%
    09:00 -11°C° 0 mm 14 m/s 750 mmHg 61%
    10:00 -11°C° 0 mm 14 m/s 750 mmHg 59%
    11:00 -10°C° 0 mm 13 m/s 749 mmHg 59%
    12:00 -9°C° 0 mm 13 m/s 749 mmHg 58%
    13:00 -9°C° 0 mm 13 m/s 749 mmHg 58%
    14:00 -9°C° 0,1 mm 13 m/s 748 mmHg 60%
    15:00 -8°C° 0,1 mm 12 m/s 748 mmHg 61%
    16:00 -8°C° 0,1 mm 12 m/s 748 mmHg 63%
    17:00 -8°C° 0,1 mm 12 m/s 748 mmHg 63%
    18:00 -10°C° 0,1 mm 12 m/s 749 mmHg 64%
    19:00 -10°C° 0,1 mm 12 m/s 749 mmHg 64%
    20:00 -10°C° 0,1 mm 12 m/s 749 mmHg 64%
    21:00 -10°C° 0,1 mm 12 m/s 749 mmHg 63%
    22:00 -10°C° 0,1 mm 12 m/s 749 mmHg 63%
    23:00 -9°C° 0,1 mm 11 m/s 749 mmHg 63%

    Mâine, 27 Februarie, Marţi

    Timp Temperatura Precipitaţii Vânt Presiune Umiditate
    00:00 -9°C° 0,1 mm 11 m/s 749 mmHg 63%
    01:00 -9°C° 0,1 mm 10 m/s 749 mmHg 63%
    02:00 -9°C° 0 mm 10 m/s 749 mmHg 63%
    03:00 -10°C° 0 mm 10 m/s 749 mmHg 64%
    04:00 -10°C° 0 mm 9 m/s 749 mmHg 64%
    05:00 -10°C° 0 mm 9 m/s 749 mmHg 64%
    06:00 -10°C° 0 mm 9 m/s 749 mmHg 64%
    07:00 -10°C° 0 mm 9 m/s 749 mmHg 64%
    08:00 -8°C° 0 mm 8 m/s 749 mmHg 61%
    09:00 -8°C° 0 mm 8 m/s 749 mmHg 59%
    10:00 -7°C° 0 mm 7 m/s 749 mmHg 56%
    11:00 -7°C° 0 mm 7 m/s 749 mmHg 55%
    12:00 -5°C° 0 mm 6 m/s 749 mmHg 54%
    13:00 -5°C° 0 mm 6 m/s 749 mmHg 53%
    14:00 -5°C° 0 mm 6 m/s 749 mmHg 54%
    15:00 -5°C° 0 mm 5 m/s 749 mmHg 54%
    16:00 -5°C° 0 mm 5 m/s 749 mmHg 55%
    17:00 -6°C° 0 mm 5 m/s 750 mmHg 58%
    18:00 -6°C° 0 mm 6 m/s 750 mmHg 62%
    19:00 -8°C° 0 mm 6 m/s 751 mmHg 65%
    20:00 -8°C° 0 mm 6 m/s 751 mmHg 66%
    21:00 -9°C° 0 mm 6 m/s 752 mmHg 67%
    22:00 -9°C° 0 mm 6 m/s 752 mmHg 67%
    23:00 -9°C° 0 mm 6 m/s 752 mmHg 67%

    Poimâine, 28 Februarie, Miercuri

    Timp Temperatura Precipitaţii Vânt Presiune Umiditate
    00:00 -9°C° 0 mm 7 m/s 752 mmHg 67%
    01:00 -11°C° 0 mm 7 m/s 753 mmHg 67%
    02:00 -11°C° 0 mm 7 m/s 753 mmHg 67%
    03:00 -11°C° 0 mm 7 m/s 753 mmHg 67%
    04:00 -11°C° 0 mm 7 m/s 753 mmHg 67%
    05:00 -11°C° 0 mm 7 m/s 753 mmHg 68%
    06:00 -10°C° 0 mm 6 m/s 754 mmHg 68%
    07:00 -10°C° 0 mm 6 m/s 754 mmHg 68%
    08:00 -9°C° 0 mm 6 m/s 754 mmHg 63%
    09:00 -6°C° 0 mm 6 m/s 755 mmHg 57%
    10:00 -5°C° 0 mm 6 m/s 755 mmHg 51%
    11:00 -4°C° 0 mm 5 m/s 755 mmHg 48%
    12:00 -2°C° 0 mm 5 m/s 755 mmHg 45%
    13:00 -1°C° 0 mm 4 m/s 755 mmHg 42%
    14:00 -1°C° 0 mm 4 m/s 755 mmHg 43%
    15:00 0°C° 0 mm 3 m/s 755 mmHg 45%
    16:00 0°C° 0 mm 3 m/s 755 mmHg 46%
    17:00 -2°C° 0 mm 3 m/s 756 mmHg 53%
    18:00 -4°C° 0 mm 3 m/s 756 mmHg 60%
    19:00 -5°C° 0 mm 3 m/s 756 mmHg 67%
    20:00 -5°C° 0 mm 3 m/s 757 mmHg 67%
    21:00 -5°C° 0 mm 3 m/s 757 mmHg 68%
    22:00 -6°C° 0 mm 3 m/s 757 mmHg 69%
    23:00 -6°C° 0 mm 3 m/s 757 mmHg 68%

    1 Martie, Joi

    Timp Temperatura Precipitaţii Vânt Presiune Umiditate
    00:00 -6°C° 0 mm 3 m/s 757 mmHg 67%
    01:00 -6°C° 0 mm 3 m/s 757 mmHg 66%
    02:00 -6°C° 0 mm 3 m/s 757 mmHg 67%
    03:00 -6°C° 0 mm 3 m/s 756 mmHg 68%
    04:00 -7°C° 0 mm 4 m/s 756 mmHg 68%
    05:00 -7°C° 0 mm 4 m/s 755 mmHg 68%
    06:00 -5°C° 0 mm 4 m/s 755 mmHg 68%
    07:00 -5°C° 0 mm 4 m/s 755 mmHg 68%
    08:00 -4°C° 0,1 mm 5 m/s 755 mmHg 66%
    09:00 -3°C° 0,1 mm 6 m/s 754 mmHg 64%
    10:00 -1°C° 0,1 mm 6 m/s 754 mmHg 62%
    11:00 -1°C° 0,3 mm 7 m/s 753 mmHg 66%
    12:00 -1°C° 0,3 mm 7 m/s 753 mmHg 70%
    13:00 0°C° 0,3 mm 7 m/s 752 mmHg 75%
    14:00 0°C° 0,3 mm 7 m/s 751 mmHg 77%
    15:00 0°C° 0,3 mm 8 m/s 751 mmHg 79%
    16:00 +1°C° 0,3 mm 8 m/s 750 mmHg 82%
    17:00 +1°C° 0,6 mm 8 m/s 750 mmHg 84%
    18:00 0°C° 0,6 mm 8 m/s 750 mmHg 87%
    19:00 0°C° 0,6 mm 8 m/s 749 mmHg 90%
    20:00 0°C° 0,6 mm 8 m/s 749 mmHg 91%
    21:00 +2°C° 0,6 mm 7 m/s 749 mmHg 91%
    22:00 +2°C° 0,6 mm 7 m/s 748 mmHg 92%
    23:00 +2°C° 0,7 mm 6 m/s 748 mmHg 91%

    2 Martie, Vineri

    Timp Temperatura Precipitaţii Vânt Presiune Umiditate
    00:00 +2°C° 0,7 mm 6 m/s 747 mmHg 91%
    01:00 +2°C° 0,7 mm 6 m/s 747 mmHg 91%
    02:00 +2°C° 0,5 mm 5 m/s 747 mmHg 91%
    03:00 +2°C° 0,5 mm 5 m/s 746 mmHg 91%
    04:00 +2°C° 0,5 mm 5 m/s 746 mmHg 91%
    05:00 +2°C° 0,2 mm 5 m/s 746 mmHg 91%
    06:00 +3°C° 0,2 mm 4 m/s 746 mmHg 91%
    07:00 +3°C° 0,2 mm 4 m/s 746 mmHg 90%
    08:00 +3°C° 0,1 mm 4 m/s 746 mmHg 89%
    09:00 +4°C° 0,1 mm 4 m/s 746 mmHg 89%
    10:00 +4°C° 0,1 mm 4 m/s 746 mmHg 88%
    11:00 +5°C° 0 mm 3 m/s 746 mmHg 87%
    12:00 +7°C° 0 mm 3 m/s 746 mmHg 85%
    13:00 +8°C° 0 mm 2 m/s 745 mmHg 84%
    14:00 +9°C° 0 mm 2 m/s 745 mmHg 84%
    15:00 +9°C° 0 mm 2 m/s 745 mmHg 84%
    16:00 +9°C° 0 mm 2 m/s 745 mmHg 84%
    17:00 +9°C° 0 mm 1 m/s 745 mmHg 86%
    18:00 +8°C° 0 mm 1 m/s 746 mmHg 89%
    19:00 +7°C° 0 mm 1 m/s 746 mmHg 91%
    20:00 +7°C° 0 mm 1 m/s 746 mmHg 91%
    21:00 +7°C° 0 mm 1 m/s 746 mmHg 91%
    22:00 +7°C° 0 mm 1 m/s 746 mmHg 92%
    23:00 +7°C° 0,1 mm 1 m/s 746 mmHg 92%

    3 Martie, Sâmbătă

    Timp Temperatura Precipitaţii Vânt Presiune Umiditate
    00:00 +6°C° 0,1 mm 2 m/s 746 mmHg 93%
    01:00 +7°C° 0,1 mm 2 m/s 745 mmHg 93%
    02:00 +7°C° 0,5 mm 2 m/s 745 mmHg 94%
    03:00 +7°C° 0,5 mm 3 m/s 744 mmHg 95%
    04:00 +7°C° 0,5 mm 3 m/s 744 mmHg 96%
    05:00 +7°C° 1 mm 3 m/s 744 mmHg 97%
    06:00 +7°C° 1 mm 3 m/s 743 mmHg 98%
    07:00 +8°C° 1 mm 3 m/s 743 mmHg 98%
    08:00 +7°C° 1,6 mm 4 m/s 743 mmHg 98%
    09:00 +7°C° 1,6 mm 4 m/s 743 mmHg 98%
    10:00 +7°C° 1,6 mm 4 m/s 744 mmHg 98%
    11:00 +8°C° 1,1 mm 4 m/s 743 mmHg 98%
    12:00 +8°C° 1,1 mm 4 m/s 743 mmHg 97%
    13:00 +8°C° 1,1 mm 4 m/s 743 mmHg 96%
    14:00 +9°C° 0,1 mm 3 m/s 743 mmHg 96%
    15:00 +10°C° 0,1 mm 3 m/s 743 mmHg 95%
    16:00 +10°C° 0,1 mm 2 m/s 743 mmHg 94%
    17:00 +9°C° 0 mm 2 m/s 743 mmHg 95%
    18:00 +8°C° 0 mm 2 m/s 743 mmHg 96%
    19:00 +9°C° 0 mm 1 m/s 744 mmHg 96%
    20:00 +8°C° 0,6 mm 2 m/s 744 mmHg 97%
    21:00 +8°C° 0,6 mm 2 m/s 744 mmHg 97%
    22:00 +8°C° 0,6 mm 2 m/s 744 mmHg 97%
    23:00 +8°C° 0,6 mm 2 m/s 744 mmHg 97%
    Arată mai mult